Weather History for KMIC - March, 2013

Change the Weather History Date:

Monday, March 11, 2013

  Actual Average (WUND) Record (WUND)
Temperature  
Mean Temperature 26 °F -  
Max Temperature 30 °F - - (-1)
Min Temperature 21 °F - - (-1)
Degree Days  
Heating Degree Days 38    
Moisture  
Dew Point 20 °F    
Average Humidity 74    
Maximum Humidity 81    
Minimum Humidity 64    
Precipitation  
Precipitation 0.00 in - - ()
Sea Level Pressure  
Sea Level Pressure 29.81 in    
Wind  
Wind Speed 12 mph (NNW)    
Max Wind Speed 16 mph    
Max Gust Speed 21 mph    
Visibility 10 miles    
Events      
Averages and records for this station are not official NWS values.
T = Trace of Precipitation, MM = Missing Value Source: NWS Daily Summary

Daily Weather History Graph

Daily Weather History Graph

Search for Another Location

Airport or City:

Trip Planner

Search our weather history database for the weather conditions in past years. The results will help you decide how hot, cold, wet, or windy it might be!

Date:

Astronomy

Mar. 11, 2013 Rise Set
Actual Time 7:32 AM CDT 7:14 PM CDT
Civil Twilight 7:03 AM CDT 7:43 PM CDT
Nautical Twilight 6:29 AM CDT 8:17 PM CDT
Astronomical Twilight 5:54 AM CDT 8:52 PM CDT
Moon 7:05 AM CDT (3/11) 7:30 PM CDT (3/11)
Length of Visible Light 12h 40m
Length of Day
11h 41m
Waning Crescent, 0% of the Moon is Illuminated
Mar 11
Waning Crescent
Mar 11
New
Mar 19
First Quarter
Mar 27
Full
Apr 2
Last Quarter

Hourly Weather History & Observations

Time (CDT) Temp. Windchill Dew Point Humidity Pressure Visibility Wind Dir Wind Speed Gust Speed Precip Events Conditions
12:53 AM 28.9 °F 18.6 °F 21.9 °F 75% 29.88 in 10.0 mi North 12.7 mph 18.4 mph N/A   Overcast
1:53 AM 28.0 °F 17.5 °F 21.0 °F 75% 29.87 in 10.0 mi North 12.7 mph - N/A   Overcast
2:53 AM 28.0 °F 18.1 °F 21.0 °F 75% 29.87 in 10.0 mi North 11.5 mph - N/A   Overcast
3:53 AM 27.0 °F 16.1 °F 21.0 °F 78% 29.86 in 10.0 mi North 12.7 mph - N/A   Overcast
5:53 AM 26.1 °F 16.8 °F 19.9 °F 78% 29.82 in 10.0 mi North 9.2 mph - N/A   Overcast
6:53 AM 26.1 °F 15.0 °F 19.9 °F 78% 29.82 in 10.0 mi North 12.7 mph - N/A   Overcast
7:53 AM 26.1 °F 16.8 °F 19.9 °F 78% 29.81 in 10.0 mi North 9.2 mph - N/A   Overcast
8:53 AM 26.1 °F 16.2 °F 19.0 °F 75% 29.83 in 10.0 mi NNW 10.4 mph - N/A   Overcast
9:53 AM 26.1 °F 15.0 °F 19.9 °F 78% 29.83 in 10.0 mi NNW 12.7 mph 20.7 mph N/A   Overcast
10:00 AM 26.6 °F 14.3 °F 19.4 °F 74% 29.79 in 10.0 mi NNW 16.1 mph 20.7 mph N/A   Overcast
10:53 AM 26.1 °F 15.6 °F 21.0 °F 81% 29.82 in 10.0 mi North 11.5 mph - N/A   Overcast
11:53 AM 27.0 °F 16.1 °F 21.0 °F 78% 29.81 in 10.0 mi NNW 12.7 mph - N/A   Overcast
12:53 PM 27.0 °F 16.7 °F 21.0 °F 78% 29.80 in 10.0 mi NW 11.5 mph - N/A   Overcast
1:33 PM 26.6 °F 17.5 °F 21.2 °F 80% 29.75 in 10.0 mi NNW 9.2 mph - N/A   Overcast
1:53 PM 28.0 °F 18.1 °F 21.0 °F 75% 29.78 in 10.0 mi NNW 11.5 mph - N/A   Overcast
2:53 PM 28.9 °F 19.8 °F 19.9 °F 69% 29.77 in 10.0 mi NNW 10.4 mph - N/A   Overcast
3:19 PM 28.4 °F 18.0 °F 19.4 °F 69% 29.73 in 10.0 mi NW 12.7 mph - N/A   Overcast
3:53 PM 28.9 °F 19.2 °F 19.0 °F 67% 29.77 in 10.0 mi North 11.5 mph - N/A   Overcast
4:53 PM 30.0 °F 21.7 °F 19.0 °F 64% 29.78 in 10.0 mi NNW 9.2 mph - N/A   Overcast
5:53 PM 28.9 °F 18.6 °F 19.0 °F 67% 29.79 in 10.0 mi WNW 12.7 mph - N/A   Overcast
6:53 PM 28.0 °F 17.0 °F 19.0 °F 69% 29.80 in 10.0 mi WNW 13.8 mph 18.4 mph N/A   Mostly Cloudy
7:53 PM 28.0 °F 17.5 °F 18.0 °F 66% 29.81 in 10.0 mi WNW 12.7 mph - N/A   Overcast
8:53 PM 26.1 °F 16.2 °F 18.0 °F 71% 29.83 in 10.0 mi WNW 10.4 mph - N/A   Overcast
9:53 PM 25.0 °F 15.5 °F 17.1 °F 72% 29.84 in 10.0 mi West 9.2 mph - N/A   Scattered Clouds
10:53 PM 23.0 °F 13.9 °F 16.0 °F 74% 29.86 in 10.0 mi West 8.1 mph - N/A   Partly Cloudy
11:53 PM 21.9 °F 14.5 °F 16.0 °F 78% 29.86 in 10.0 mi West 5.8 mph - N/A   Partly Cloudy